Regional Weather Roundup
Issued by NWS

Home | Current Version | Previous Version | Graphics & Text | Print | Product List | Glossary On
Versions: 1 2 3 4 5 6 7 8 9 10 11 12 13 14 15 16 17 18 19 20 21 22 23 24 25 26 27 28 29 30 31 32 33 34 35 36 37 38 39 40 41 42 43 44 45 46 47 48 49 50
000
ASUS43 KLOT 210058
RWRIL

ILLINOIS REGIONAL WEATHER ROUNDUP
NATIONAL WEATHER SERVICE CHICAGO/ROMEOVILLE IL
800 PM CDT SAT SEP 20 2014

NOTE: "FAIR" INDICATES FEW OR NO CLOUDS BELOW 12,000 FEET WITH NO
SIGNIFICANT WEATHER AND/OR OBSTRUCTIONS TO VISIBILITY.

* THESE STATIONS ARE NOT UNDER NWS QUALITY CONTROL. THEY ALSO MAY NOT
  REPORT WEATHER SUCH AS PRECIPITATION OR FOG.

ILZ001-002-007-009-015-016-024-210200-
NORTHWEST ILLINOIS

CITY           SKY/WX    TMP DP  RH WIND       PRES   REMARKS
MOLINE         PTCLDY    71  67  87 SW5       29.80F
$$

ILZ003-004-008-010-011-017-018-210200-
NORTH CENTRAL ILLINOIS

CITY           SKY/WX    TMP DP  RH WIND       PRES   REMARKS
ROCKFORD       NOT AVBL
$$

ILZ005-006-012>014-019>023-210200-
NORTHEAST ILLINOIS

CITY           SKY/WX    TMP DP  RH WIND       PRES   REMARKS
CHICAGO-OHARE  PTCLDY    71  62  73 S3        29.80S
CHICAGO-MIDWAY MOCLDY    73  66  78 SW9       29.80F
AURORA         CLEAR     70  65  84 SW7       29.81S
WAUKEGAN       CLEAR     66  62  87 SW7       29.77F
DUPAGE AIRPORT CLEAR     68  63  84 SW8       29.80S
WHEELING       CLEAR     68  60  75 S5        29.81S
NORTHERLY ISL    N/A     72  62  71 SW2         N/A
$$

LMZ740>746-210200-
SOUTHERN LAKE MICHIGAN

STATION/POSITION SKY/WX   TEMP    WIND        PRES    VSBY  WAVE
                          AIR SEA DIR/SP/G                  HT/PER
                          (F)     (DEG/KT/KT) (MB)    (MI)  (FT/S)
SOUTHERN BUOY              66 63  230/ 12/ 14 1007.8R         2/ 4
WAUKEGAN HARBOR            70     230/  8/  9   N/A
HARRISON CRIB              72     210/ 15/ 18   N/A
BURNHAM HARBOR             72     190/  5/  9   N/A
CALUMET HARBOR             72     210/  5/  7 1008.2R
MICHIGAN CITY              69     170/ 11/ 14   N/A
MICHIGAN CITY 6N           67 65  190/ 10/ 12   N/A           1/ 3
ST. JOSEPH                 67 65  180/  8/ 12   N/A           2/ 4
$$

ILZ025>027-034>036-040-047-049-050-058-095>099-210200-
WEST-CENTRAL ILLINOIS

CITY           SKY/WX    TMP DP  RH WIND       PRES   REMARKS
$$

ILZ028>032-037-038-041>044-048-051>054-059>061-210200-
CENTRAL ILLINOIS

CITY           SKY/WX    TMP DP  RH WIND       PRES   REMARKS
PEORIA         NOT AVBL
SPRINGFIELD    CLEAR     71  68  90 SW3       29.87F
TAYLORVILLE    NOT AVBL
$$

ILZ033-039-045-046-055>057-062-063-210200-
EAST-CENTRAL ILLINOIS

CITY           SKY/WX    TMP DP  RH WIND       PRES   REMARKS
CHAMPAIGN      MOCLDY    72  70  93 S6        29.89F
MATTOON        CLOUDY    74  68  81 S5        29.91R
$$

ILZ079-100>102-210200-
SOUTHWEST ILLINOIS

CITY           SKY/WX    TMP DP  RH WIND       PRES   REMARKS
CAHOKIA*       PTCLDY    78  66  66 SW3       29.91S HX  80
$$

ILZ064>066-069>071-074>076-080>082-084>086-088>090-092>094-210200-
SOUTH-CENTRAL ILLINOIS

CITY           SKY/WX    TMP DP  RH WIND       PRES   REMARKS
CARBONDALE     CLEAR     73  67  81 SW6       29.94R
$$

ILZ067-068-072-073-078-083-087-091-210200-
SOUTHEAST ILLINOIS

CITY           SKY/WX    TMP DP  RH WIND       PRES   REMARKS
LAWRENCEVILLE  CLEAR     72  66  81 S7        29.94R
$$

ABBREVIATIONS USED IN REMARKS
   TC - TEMPERATURE IN CELSIUS
  WCI - WIND CHILL INDEX
   HX - HEAT INDEX
  VSB - VISIBILITY
$$




USA.gov is the U.S. government's official web portal to all federal, state and local government web resources and services.